Year,Month,Day,Hour,Minute,Value (Times are PST for temperature in C)
2011,05,26,00,00,9.90
2011,05,26,00,01,9.90
2011,05,26,00,02,9.90
2011,05,26,00,03,9.90
2011,05,26,00,04,9.90
2011,05,26,00,05,9.90
2011,05,26,00,06,9.90
2011,05,26,00,07,9.90
2011,05,26,00,08,9.80
2011,05,26,00,09,9.80
2011,05,26,00,10,9.80
2011,05,26,00,11,9.80
2011,05,26,00,12,9.80
2011,05,26,00,13,9.80
2011,05,26,00,14,9.80
2011,05,26,00,15,9.80
2011,05,26,00,16,9.80
2011,05,26,00,17,9.80
2011,05,26,00,18,9.80
2011,05,26,00,19,9.90
2011,05,26,00,20,9.90
2011,05,26,00,21,9.90
2011,05,26,00,22,9.80
2011,05,26,00,23,9.80
2011,05,26,00,24,9.80
2011,05,26,00,25,9.80
2011,05,26,00,26,9.80
2011,05,26,00,27,9.80
2011,05,26,00,28,9.80
2011,05,26,00,29,9.80
2011,05,26,00,30,9.80
2011,05,26,00,31,9.80
2011,05,26,00,32,9.80
2011,05,26,00,33,9.80
2011,05,26,00,34,9.80
2011,05,26,00,35,9.80
2011,05,26,00,36,9.80
2011,05,26,00,37,9.80
2011,05,26,00,38,9.80
2011,05,26,00,39,9.80
2011,05,26,00,40,9.80
2011,05,26,00,41,9.80
2011,05,26,00,42,9.80
2011,05,26,00,43,9.80
2011,05,26,00,44,9.80
2011,05,26,00,45,9.80
2011,05,26,00,46,9.80
2011,05,26,00,47,9.80
2011,05,26,00,48,9.80
2011,05,26,00,49,9.80
2011,05,26,00,50,9.80
2011,05,26,00,51,9.80
2011,05,26,00,52,9.80
2011,05,26,00,53,9.80
2011,05,26,00,54,9.80
2011,05,26,00,55,9.70
2011,05,26,00,56,9.70
2011,05,26,00,57,9.70
2011,05,26,00,58,9.70
2011,05,26,00,59,9.70
2011,05,26,01,00,9.60
2011,05,26,01,01,9.60
2011,05,26,01,02,9.60
2011,05,26,01,03,9.60
2011,05,26,01,04,9.60
2011,05,26,01,05,9.60
2011,05,26,01,06,9.60
2011,05,26,01,07,9.60
2011,05,26,01,08,9.60
2011,05,26,01,09,9.60
2011,05,26,01,10,9.60
2011,05,26,01,11,9.60
2011,05,26,01,12,9.60
2011,05,26,01,13,9.60
2011,05,26,01,14,9.60
2011,05,26,01,15,9.60
2011,05,26,01,16,9.60
2011,05,26,01,17,9.60
2011,05,26,01,18,9.60
2011,05,26,01,19,9.60
2011,05,26,01,20,9.60
2011,05,26,01,21,9.60
2011,05,26,01,22,9.60
2011,05,26,01,23,9.60
2011,05,26,01,24,9.60
2011,05,26,01,25,9.60
2011,05,26,01,26,9.60
2011,05,26,01,27,9.60
2011,05,26,01,28,9.60
2011,05,26,01,29,9.60
2011,05,26,01,30,9.60
2011,05,26,01,31,9.60
2011,05,26,01,32,9.60
2011,05,26,01,33,9.60
2011,05,26,01,34,9.60
2011,05,26,01,35,9.60
2011,05,26,01,36,9.60
2011,05,26,01,37,9.60
2011,05,26,01,38,9.60
2011,05,26,01,39,9.60
2011,05,26,01,40,9.60
2011,05,26,01,41,9.60
2011,05,26,01,42,9.50
2011,05,26,01,43,9.50
2011,05,26,01,44,9.50
2011,05,26,01,45,9.50
2011,05,26,01,46,9.50
2011,05,26,01,47,9.50
2011,05,26,01,48,9.50
2011,05,26,01,49,9.50
2011,05,26,01,50,9.50
2011,05,26,01,51,9.50
2011,05,26,01,52,9.50
2011,05,26,01,53,9.50
2011,05,26,01,54,9.50
2011,05,26,01,55,9.50
2011,05,26,01,56,9.40
2011,05,26,01,57,9.40
2011,05,26,01,58,9.40
2011,05,26,01,59,9.40
2011,05,26,02,00,9.40
2011,05,26,02,01,9.40
2011,05,26,02,02,9.40
2011,05,26,02,03,9.40
2011,05,26,02,04,9.40
2011,05,26,02,05,9.40
2011,05,26,02,06,9.40
2011,05,26,02,07,9.40
2011,05,26,02,08,9.30
2011,05,26,02,09,9.30
2011,05,26,02,10,9.30
2011,05,26,02,11,9.20
2011,05,26,02,12,9.20
2011,05,26,02,13,9.10
2011,05,26,02,14,9.10
2011,05,26,02,15,9.10
2011,05,26,02,16,9.10
2011,05,26,02,17,9.10
2011,05,26,02,18,9.10
2011,05,26,02,19,9.10
2011,05,26,02,20,9.10
2011,05,26,02,21,9.10
2011,05,26,02,22,9.10
2011,05,26,02,23,9.00
2011,05,26,02,24,9.00
2011,05,26,02,25,9.00
2011,05,26,02,26,9.00
2011,05,26,02,27,8.90
2011,05,26,02,28,8.90
2011,05,26,02,29,8.90
2011,05,26,02,30,8.90
2011,05,26,02,31,8.90
2011,05,26,02,32,8.90
2011,05,26,02,33,8.90
2011,05,26,02,34,8.80
2011,05,26,02,35,8.90
2011,05,26,02,36,8.80
2011,05,26,02,37,8.80
2011,05,26,02,38,8.80
2011,05,26,02,39,8.80
2011,05,26,02,40,8.80
2011,05,26,02,41,8.80
2011,05,26,02,42,8.70
2011,05,26,02,43,8.70
2011,05,26,02,44,8.70
2011,05,26,02,45,8.80
2011,05,26,02,46,8.80
2011,05,26,02,47,8.90
2011,05,26,02,48,8.90
2011,05,26,02,49,8.90
2011,05,26,02,50,8.90
2011,05,26,02,51,8.90
2011,05,26,02,52,8.80
2011,05,26,02,53,8.70
2011,05,26,02,54,8.70
2011,05,26,02,55,8.60
2011,05,26,02,56,8.60
2011,05,26,02,57,8.60
2011,05,26,02,58,8.50
2011,05,26,02,59,8.40
2011,05,26,03,00,8.40
2011,05,26,03,01,8.40
2011,05,26,03,02,8.40
2011,05,26,03,03,8.30
2011,05,26,03,04,8.30
2011,05,26,03,05,8.30
2011,05,26,03,06,8.30
2011,05,26,03,07,8.20
2011,05,26,03,08,8.20
2011,05,26,03,09,8.20
2011,05,26,03,10,8.20
2011,05,26,03,11,8.20
2011,05,26,03,12,8.20
2011,05,26,03,13,8.20
2011,05,26,03,14,8.20
2011,05,26,03,15,8.20
2011,05,26,03,16,8.20
2011,05,26,03,17,8.10
2011,05,26,03,18,8.10
2011,05,26,03,19,8.10
2011,05,26,03,20,8.10
2011,05,26,03,21,8.00
2011,05,26,03,22,8.00
2011,05,26,03,23,7.90
2011,05,26,03,24,7.90
2011,05,26,03,25,7.80
2011,05,26,03,26,7.80
2011,05,26,03,27,7.80
2011,05,26,03,28,7.80
2011,05,26,03,29,7.80
2011,05,26,03,30,7.70
2011,05,26,03,31,7.70
2011,05,26,03,32,7.70
2011,05,26,03,33,7.70
2011,05,26,03,34,7.70
2011,05,26,03,35,7.60
2011,05,26,03,36,7.60
2011,05,26,03,37,7.60
2011,05,26,03,38,7.60
2011,05,26,03,39,7.60
2011,05,26,03,40,7.60
2011,05,26,03,41,7.60
2011,05,26,03,42,7.60
2011,05,26,03,43,7.50
2011,05,26,03,44,7.50
2011,05,26,03,45,7.40
2011,05,26,03,46,7.40
2011,05,26,03,47,7.40
2011,05,26,03,48,7.40
2011,05,26,03,49,7.40
2011,05,26,03,50,7.40
2011,05,26,03,51,7.40
2011,05,26,03,52,7.40
2011,05,26,03,53,7.40
2011,05,26,03,54,7.40
2011,05,26,03,55,7.40
2011,05,26,03,56,7.40
2011,05,26,03,57,7.40
2011,05,26,03,58,7.40
2011,05,26,03,59,7.30
2011,05,26,04,00,7.30
2011,05,26,04,01,7.30
2011,05,26,04,02,7.20
2011,05,26,04,03,7.20
2011,05,26,04,04,7.20
2011,05,26,04,05,7.20
2011,05,26,04,06,7.20
2011,05,26,04,07,7.20
2011,05,26,04,08,7.20
2011,05,26,04,09,7.20
2011,05,26,04,10,7.20
2011,05,26,04,11,7.20
2011,05,26,04,12,7.20
2011,05,26,04,13,7.20
2011,05,26,04,14,7.20
2011,05,26,04,15,7.20
2011,05,26,04,16,7.20
2011,05,26,04,17,7.20
2011,05,26,04,18,7.20
2011,05,26,04,19,7.20
2011,05,26,04,20,7.10
2011,05,26,04,21,7.10
2011,05,26,04,22,7.10
2011,05,26,04,23,7.10
2011,05,26,04,24,7.10
2011,05,26,04,25,7.10
2011,05,26,04,26,7.10
2011,05,26,04,27,7.10
2011,05,26,04,28,7.10
2011,05,26,04,29,7.10
2011,05,26,04,30,7.00
2011,05,26,04,31,7.00
2011,05,26,04,32,7.00
2011,05,26,04,33,7.00
2011,05,26,04,34,7.00
2011,05,26,04,35,7.00
2011,05,26,04,36,7.00
2011,05,26,04,37,7.00
2011,05,26,04,38,7.00
2011,05,26,04,39,7.00
2011,05,26,04,40,7.00
2011,05,26,04,41,7.00
2011,05,26,04,42,7.00
2011,05,26,04,43,7.00
2011,05,26,04,44,7.00
2011,05,26,04,45,7.00
2011,05,26,04,46,7.00
2011,05,26,04,47,7.00
2011,05,26,04,48,7.00
2011,05,26,04,49,7.00
2011,05,26,04,50,7.00
2011,05,26,04,51,7.00
2011,05,26,04,52,7.00
2011,05,26,04,53,7.00
2011,05,26,04,54,7.00
2011,05,26,04,55,7.10
2011,05,26,04,56,7.10
2011,05,26,04,57,7.00
2011,05,26,04,58,7.00
2011,05,26,04,59,7.00
2011,05,26,05,00,7.00
2011,05,26,05,01,7.00
2011,05,26,05,02,7.00
2011,05,26,05,03,7.00
2011,05,26,05,04,7.00
2011,05,26,05,05,7.00
2011,05,26,05,06,7.00
2011,05,26,05,07,7.00
2011,05,26,05,08,7.00
2011,05,26,05,09,6.90
2011,05,26,05,10,6.90
2011,05,26,05,11,6.80
2011,05,26,05,12,6.80
2011,05,26,05,13,6.80
2011,05,26,05,14,6.80
2011,05,26,05,15,6.70
2011,05,26,05,16,6.70
2011,05,26,05,17,6.70
2011,05,26,05,18,6.80
2011,05,26,05,19,6.70
2011,05,26,05,20,6.80
2011,05,26,05,21,6.70
2011,05,26,05,22,6.70
2011,05,26,05,23,6.70
2011,05,26,05,24,6.70
2011,05,26,05,25,6.60
2011,05,26,05,26,6.60
2011,05,26,05,27,6.60
2011,05,26,05,28,6.60
2011,05,26,05,29,6.50
2011,05,26,05,30,6.50
2011,05,26,05,31,6.40
2011,05,26,05,32,6.30
2011,05,26,05,33,6.30
2011,05,26,05,34,6.30
2011,05,26,05,35,6.30
2011,05,26,05,36,6.30
2011,05,26,05,37,6.30
2011,05,26,05,38,6.30
2011,05,26,05,39,6.30
2011,05,26,05,40,6.30
2011,05,26,05,41,6.30
2011,05,26,05,42,6.30
2011,05,26,05,43,6.30
2011,05,26,05,44,6.30
2011,05,26,05,45,6.30
2011,05,26,05,46,6.30
2011,05,26,05,47,6.30
2011,05,26,05,48,6.30
2011,05,26,05,49,6.30
2011,05,26,05,50,6.30
2011,05,26,05,51,6.30
2011,05,26,05,52,6.30
2011,05,26,05,53,6.30
2011,05,26,05,54,6.30
2011,05,26,05,55,6.30
2011,05,26,05,56,6.30
2011,05,26,05,57,6.30
2011,05,26,05,58,6.30
2011,05,26,05,59,6.30
2011,05,26,06,00,6.30
2011,05,26,06,01,6.30
2011,05,26,06,02,6.30
2011,05,26,06,03,6.30
2011,05,26,06,04,6.30
2011,05,26,06,05,6.30
2011,05,26,06,06,6.30
2011,05,26,06,07,6.30
2011,05,26,06,08,6.30
2011,05,26,06,09,6.30
2011,05,26,06,10,6.30
2011,05,26,06,11,6.30
2011,05,26,06,12,6.30
2011,05,26,06,13,6.30
2011,05,26,06,14,6.50
2011,05,26,06,15,6.60
2011,05,26,06,16,6.80
2011,05,26,06,17,6.80
2011,05,26,06,18,7.00
2011,05,26,06,19,7.10
2011,05,26,06,20,7.20
2011,05,26,06,21,7.20
2011,05,26,06,22,7.20
2011,05,26,06,23,7.30
2011,05,26,06,24,7.30
2011,05,26,06,25,7.30
2011,05,26,06,26,7.40
2011,05,26,06,27,7.50
2011,05,26,06,28,7.60
2011,05,26,06,29,7.70
2011,05,26,06,30,7.70
2011,05,26,06,31,7.70
2011,05,26,06,32,7.70
2011,05,26,06,33,7.60
2011,05,26,06,34,7.60
2011,05,26,06,35,7.60
2011,05,26,06,36,7.60
2011,05,26,06,37,7.60
2011,05,26,06,38,7.60
2011,05,26,06,39,7.50
2011,05,26,06,40,7.60
2011,05,26,06,41,7.60
2011,05,26,06,42,7.60
2011,05,26,06,43,7.60
2011,05,26,06,44,7.70
2011,05,26,06,45,7.70
2011,05,26,06,46,7.70
2011,05,26,06,47,7.70
2011,05,26,06,48,7.80
2011,05,26,06,49,7.80
2011,05,26,06,50,7.80
2011,05,26,06,51,7.80
2011,05,26,06,52,7.80
2011,05,26,06,53,7.80
2011,05,26,06,54,7.80
2011,05,26,06,55,7.80
2011,05,26,06,56,7.80
2011,05,26,06,57,7.80
2011,05,26,06,58,7.90
2011,05,26,06,59,7.90
2011,05,26,07,00,7.90
2011,05,26,07,01,7.90
2011,05,26,07,02,7.90
2011,05,26,07,03,8.00
2011,05,26,07,04,8.00
2011,05,26,07,05,8.00
2011,05,26,07,06,8.00
2011,05,26,07,07,8.00
2011,05,26,07,08,8.00
2011,05,26,07,09,7.90
2011,05,26,07,10,7.90
2011,05,26,07,11,7.90
2011,05,26,07,12,7.90
2011,05,26,07,13,7.80
2011,05,26,07,14,7.80
2011,05,26,07,15,7.80
2011,05,26,07,16,7.80
2011,05,26,07,17,7.70
2011,05,26,07,18,7.70
2011,05,26,07,19,7.70
2011,05,26,07,20,7.70
2011,05,26,07,21,7.70
2011,05,26,07,22,7.70
2011,05,26,07,23,7.70
2011,05,26,07,24,7.70
2011,05,26,07,25,7.70
2011,05,26,07,26,7.70
2011,05,26,07,27,7.70
2011,05,26,07,28,7.70
2011,05,26,07,29,7.70
2011,05,26,07,30,7.70
2011,05,26,07,31,7.70
2011,05,26,07,32,7.70
2011,05,26,07,33,7.70
2011,05,26,07,34,7.70
2011,05,26,07,35,7.70
2011,05,26,07,36,7.70
2011,05,26,07,37,7.70
2011,05,26,07,38,7.70
2011,05,26,07,39,7.60
2011,05,26,07,40,7.60
2011,05,26,07,41,7.60
2011,05,26,07,42,7.70
2011,05,26,07,43,7.70
2011,05,26,07,44,7.70
2011,05,26,07,45,7.70
2011,05,26,07,46,7.70
2011,05,26,07,47,7.70
2011,05,26,07,48,7.70
2011,05,26,07,49,7.70
2011,05,26,07,50,7.80
2011,05,26,07,51,8.00
2011,05,26,07,52,8.10
2011,05,26,07,53,8.20
2011,05,26,07,54,8.30
2011,05,26,07,55,8.50
2011,05,26,07,56,8.50
2011,05,26,07,57,8.60
2011,05,26,07,58,8.80
2011,05,26,07,59,8.90
2011,05,26,08,00,9.00
2011,05,26,08,01,9.10
2011,05,26,08,02,9.20
2011,05,26,08,03,9.30
2011,05,26,08,04,9.30
2011,05,26,08,05,9.30
2011,05,26,08,06,9.30
2011,05,26,08,07,9.30
2011,05,26,08,08,9.40
2011,05,26,08,09,9.40
2011,05,26,08,10,9.40
2011,05,26,08,11,9.40
2011,05,26,08,12,9.50
2011,05,26,08,13,9.60
2011,05,26,08,14,9.60
2011,05,26,08,15,9.60
2011,05,26,08,16,9.60
2011,05,26,08,17,9.60
2011,05,26,08,18,9.60
2011,05,26,08,19,9.60
2011,05,26,08,20,9.70
2011,05,26,08,21,9.70
2011,05,26,08,22,9.70
2011,05,26,08,23,9.70
2011,05,26,08,24,9.70
2011,05,26,08,25,9.70
2011,05,26,08,26,9.70
2011,05,26,08,27,9.70
2011,05,26,08,28,9.70
2011,05,26,08,29,9.70
2011,05,26,08,30,9.70
2011,05,26,08,31,9.70
2011,05,26,08,32,9.70
2011,05,26,08,33,9.70
2011,05,26,08,34,9.80
2011,05,26,08,35,9.80
2011,05,26,08,36,9.70
2011,05,26,08,37,9.70
2011,05,26,08,38,9.70
2011,05,26,08,39,9.70
2011,05,26,08,40,9.70
2011,05,26,08,41,9.70
2011,05,26,08,42,9.70
2011,05,26,08,43,9.70
2011,05,26,08,44,9.70
2011,05,26,08,45,9.70
2011,05,26,08,46,9.70
2011,05,26,08,47,9.80
2011,05,26,08,48,9.80
2011,05,26,08,49,9.80
2011,05,26,08,50,9.80
2011,05,26,08,51,9.80
2011,05,26,08,52,9.80
2011,05,26,08,53,9.80
2011,05,26,08,54,9.80
2011,05,26,08,55,9.80
2011,05,26,08,56,9.80
2011,05,26,08,57,9.80
2011,05,26,08,58,9.80
2011,05,26,08,59,9.80
2011,05,26,09,00,9.80
2011,05,26,09,01,9.80
2011,05,26,09,02,9.80
2011,05,26,09,03,9.90
2011,05,26,09,04,9.90
2011,05,26,09,05,9.90
2011,05,26,09,06,9.90
2011,05,26,09,07,9.90
2011,05,26,09,08,10.00
2011,05,26,09,09,10.00
2011,05,26,09,10,10.00
2011,05,26,09,11,10.10
2011,05,26,09,12,10.10
2011,05,26,09,13,10.10
2011,05,26,09,14,10.20
2011,05,26,09,15,10.20
2011,05,26,09,16,10.30
2011,05,26,09,17,10.30
2011,05,26,09,18,10.40
2011,05,26,09,19,10.40
2011,05,26,09,20,10.50
2011,05,26,09,21,10.50
2011,05,26,09,22,10.60
2011,05,26,09,23,10.60
2011,05,26,09,24,10.70
2011,05,26,09,25,10.80
2011,05,26,09,26,10.80
2011,05,26,09,27,10.80
2011,05,26,09,28,10.80
2011,05,26,09,29,10.90
2011,05,26,09,30,10.90
2011,05,26,09,31,10.90
2011,05,26,09,32,10.90
2011,05,26,09,33,10.90
2011,05,26,09,34,11.00
2011,05,26,09,35,11.00
2011,05,26,09,36,11.10
2011,05,26,09,37,11.20
2011,05,26,09,38,11.30
2011,05,26,09,39,11.30
2011,05,26,09,40,11.30
2011,05,26,09,41,11.30
2011,05,26,09,42,11.40
2011,05,26,09,43,11.40
2011,05,26,09,44,11.50
2011,05,26,09,45,11.50
2011,05,26,09,46,11.60
2011,05,26,09,47,11.60
2011,05,26,09,48,11.70
2011,05,26,09,49,11.70
2011,05,26,09,50,11.70
2011,05,26,09,51,11.70
2011,05,26,09,52,11.70
2011,05,26,09,53,11.60
2011,05,26,09,54,11.60
2011,05,26,09,55,11.70
2011,05,26,09,56,11.70
2011,05,26,09,57,11.70
2011,05,26,09,58,11.70
2011,05,26,09,59,11.70
2011,05,26,10,00,11.80
2011,05,26,10,01,11.80
2011,05,26,10,02,11.80
2011,05,26,10,03,11.80
2011,05,26,10,04,11.80
2011,05,26,10,05,11.90
2011,05,26,10,06,12.00
2011,05,26,10,07,12.10
2011,05,26,10,08,12.20
2011,05,26,10,09,12.20
2011,05,26,10,10,12.20
2011,05,26,10,11,12.30
2011,05,26,10,12,12.40
2011,05,26,10,13,12.40
2011,05,26,10,14,12.40
2011,05,26,10,15,12.40
2011,05,26,10,16,12.30
2011,05,26,10,17,12.30
2011,05,26,10,18,12.30
2011,05,26,10,19,12.40
2011,05,26,10,20,12.40
2011,05,26,10,21,12.50
2011,05,26,10,22,12.60
2011,05,26,10,23,12.60
2011,05,26,10,24,12.70
2011,05,26,10,25,12.60
2011,05,26,10,26,12.60
2011,05,26,10,27,12.60
2011,05,26,10,28,12.60
2011,05,26,10,29,12.60
2011,05,26,10,30,12.60
2011,05,26,10,31,12.60
2011,05,26,10,32,12.70
2011,05,26,10,33,12.70
2011,05,26,10,34,12.70
2011,05,26,10,35,12.70
2011,05,26,10,36,12.60
2011,05,26,10,37,12.60
2011,05,26,10,38,12.60
2011,05,26,10,39,12.60
2011,05,26,10,40,12.60
2011,05,26,10,41,12.60
2011,05,26,10,42,12.60
2011,05,26,10,43,12.60
2011,05,26,10,44,12.70
2011,05,26,10,45,12.70
2011,05,26,10,46,12.80
2011,05,26,10,47,12.90
2011,05,26,10,48,13.00
2011,05,26,10,49,13.00
2011,05,26,10,50,12.90
2011,05,26,10,51,12.90
2011,05,26,10,52,12.80
2011,05,26,10,53,12.70
2011,05,26,10,54,12.70
2011,05,26,10,55,12.60
2011,05,26,10,56,12.50
2011,05,26,10,57,12.50
2011,05,26,10,58,12.50
2011,05,26,10,59,12.50
2011,05,26,11,00,12.50
2011,05,26,11,01,12.40
2011,05,26,11,02,12.50
2011,05,26,11,03,12.60
2011,05,26,11,04,12.60
2011,05,26,11,05,12.60
2011,05,26,11,06,12.70
2011,05,26,11,07,12.80
2011,05,26,11,08,12.90
2011,05,26,11,09,13.00
2011,05,26,11,10,13.10
2011,05,26,11,11,13.20
2011,05,26,11,12,13.20
2011,05,26,11,13,13.20
2011,05,26,11,14,13.20
2011,05,26,11,15,13.20
2011,05,26,11,16,13.20
2011,05,26,11,17,13.10
2011,05,26,11,18,12.90
2011,05,26,11,19,12.70
2011,05,26,11,20,12.60
2011,05,26,11,21,12.40
2011,05,26,11,22,12.30
2011,05,26,11,23,12.30
2011,05,26,11,24,12.20
2011,05,26,11,25,12.10
2011,05,26,11,26,12.00
2011,05,26,11,27,12.00
2011,05,26,11,28,12.00
2011,05,26,11,29,12.00
2011,05,26,11,30,12.10
2011,05,26,11,31,12.20
2011,05,26,11,32,12.20
2011,05,26,11,33,12.20
2011,05,26,11,34,12.20
2011,05,26,11,35,12.10
2011,05,26,11,36,12.00
2011,05,26,11,37,11.90
2011,05,26,11,38,11.90
2011,05,26,11,39,11.90
2011,05,26,11,40,11.90
2011,05,26,11,41,11.90
2011,05,26,11,42,11.90
2011,05,26,11,43,11.90
2011,05,26,11,44,11.90
2011,05,26,11,45,11.90
2011,05,26,11,46,11.90
2011,05,26,11,47,11.90
2011,05,26,11,48,12.00
2011,05,26,11,49,12.20
2011,05,26,11,50,12.30
2011,05,26,11,51,12.40
2011,05,26,11,52,12.40
2011,05,26,11,53,12.30
2011,05,26,11,54,12.30
2011,05,26,11,55,12.30
2011,05,26,11,56,12.20
2011,05,26,11,57,12.10
2011,05,26,11,58,12.00
2011,05,26,11,59,11.90
2011,05,26,12,00,11.90
2011,05,26,12,01,11.90
2011,05,26,12,02,11.90
2011,05,26,12,03,11.90
2011,05,26,12,04,11.90
2011,05,26,12,05,11.90
2011,05,26,12,06,11.90
2011,05,26,12,07,12.00
2011,05,26,12,08,11.90
2011,05,26,12,09,11.90
2011,05,26,12,10,11.90
2011,05,26,12,11,11.80
2011,05,26,12,12,11.80
2011,05,26,12,13,11.70
2011,05,26,12,14,11.80
2011,05,26,12,15,11.80
2011,05,26,12,16,11.80
2011,05,26,12,17,11.80
2011,05,26,12,18,11.90
2011,05,26,12,19,11.90
2011,05,26,12,20,11.90
2011,05,26,12,21,12.00
2011,05,26,12,22,12.10
2011,05,26,12,23,12.10
2011,05,26,12,24,12.10
2011,05,26,12,25,12.10
2011,05,26,12,26,12.20
2011,05,26,12,27,12.20
2011,05,26,12,28,12.20
2011,05,26,12,29,12.20
2011,05,26,12,30,12.30
2011,05,26,12,31,12.20
2011,05,26,12,32,12.10
2011,05,26,12,33,12.10
2011,05,26,12,34,12.10
2011,05,26,12,35,12.10
2011,05,26,12,36,12.10
2011,05,26,12,37,12.10
2011,05,26,12,38,12.10
2011,05,26,12,39,12.20
2011,05,26,12,40,12.20
2011,05,26,12,41,12.10
2011,05,26,12,42,12.10
2011,05,26,12,43,12.10
2011,05,26,12,44,12.00
2011,05,26,12,45,12.00
2011,05,26,12,46,11.90
2011,05,26,12,47,11.80
2011,05,26,12,48,11.80
2011,05,26,12,49,11.80
2011,05,26,12,50,11.70
2011,05,26,12,51,11.80
2011,05,26,12,52,11.80
2011,05,26,12,53,11.70
2011,05,26,12,54,11.70
2011,05,26,12,55,11.70
2011,05,26,12,56,11.70
2011,05,26,12,57,11.70
2011,05,26,12,58,11.70
2011,05,26,12,59,11.50
2011,05,26,13,00,11.30
2011,05,26,13,01,11.20
2011,05,26,13,02,11.10
2011,05,26,13,03,11.00
2011,05,26,13,04,10.90
2011,05,26,13,05,10.90
2011,05,26,13,06,10.80
2011,05,26,13,07,10.80
2011,05,26,13,08,10.70
2011,05,26,13,09,10.70
2011,05,26,13,10,10.70
2011,05,26,13,11,10.70
2011,05,26,13,12,10.70
2011,05,26,13,13,10.70
2011,05,26,13,14,10.70
2011,05,26,13,15,10.70
2011,05,26,13,16,10.70
2011,05,26,13,17,10.70
2011,05,26,13,18,10.70
2011,05,26,13,19,10.70
2011,05,26,13,20,10.70
2011,05,26,13,21,10.70
2011,05,26,13,22,10.80
2011,05,26,13,23,10.70
2011,05,26,13,24,10.70
2011,05,26,13,25,10.70
2011,05,26,13,26,10.70
2011,05,26,13,27,10.60
2011,05,26,13,28,10.60
2011,05,26,13,29,10.50
2011,05,26,13,30,10.50
2011,05,26,13,31,10.40
2011,05,26,13,32,10.40
2011,05,26,13,33,10.30
2011,05,26,13,34,10.30
2011,05,26,13,35,10.30
2011,05,26,13,36,10.30
2011,05,26,13,37,10.30
2011,05,26,13,38,10.30
2011,05,26,13,39,10.30
2011,05,26,13,40,10.40
2011,05,26,13,41,10.40
2011,05,26,13,42,10.40
2011,05,26,13,43,10.50
2011,05,26,13,44,10.50
2011,05,26,13,45,10.60
2011,05,26,13,46,10.70
2011,05,26,13,47,10.80
2011,05,26,13,48,10.80
2011,05,26,13,49,10.90
2011,05,26,13,50,11.00
2011,05,26,13,51,11.10
2011,05,26,13,52,11.20
2011,05,26,13,53,11.20
2011,05,26,13,54,11.20
2011,05,26,13,55,11.30
2011,05,26,13,56,11.30
2011,05,26,13,57,11.40
2011,05,26,13,58,11.50
2011,05,26,13,59,11.60
2011,05,26,14,00,11.60
2011,05,26,14,01,11.70
2011,05,26,14,02,11.80
2011,05,26,14,03,11.80
2011,05,26,14,04,11.80
2011,05,26,14,05,11.90
2011,05,26,14,06,11.90
2011,05,26,14,07,11.90
2011,05,26,14,08,11.90
2011,05,26,14,09,11.90
2011,05,26,14,10,11.90
2011,05,26,14,11,12.00
2011,05,26,14,12,12.00
2011,05,26,14,13,12.00
2011,05,26,14,14,12.00
2011,05,26,14,15,12.00
2011,05,26,14,16,12.00
2011,05,26,14,17,12.00
2011,05,26,14,18,11.90
2011,05,26,14,19,11.90
2011,05,26,14,20,11.90
2011,05,26,14,21,11.90
2011,05,26,14,22,11.90
2011,05,26,14,23,11.90
2011,05,26,14,24,11.90
2011,05,26,14,25,12.00
2011,05,26,14,26,12.00
2011,05,26,14,27,12.10
2011,05,26,14,28,12.10
2011,05,26,14,29,12.20
2011,05,26,14,30,12.20
2011,05,26,14,31,12.30
2011,05,26,14,32,12.30
2011,05,26,14,33,12.40
2011,05,26,14,34,12.40
2011,05,26,14,35,12.40
2011,05,26,14,36,12.50
2011,05,26,14,37,12.50
2011,05,26,14,38,12.60
2011,05,26,14,39,12.60
2011,05,26,14,40,12.70
2011,05,26,14,41,12.70
2011,05,26,14,42,12.80
2011,05,26,14,43,12.80
2011,05,26,14,44,12.70
2011,05,26,14,45,12.70
2011,05,26,14,46,12.70
2011,05,26,14,47,12.70
2011,05,26,14,48,12.80
2011,05,26,14,49,12.80
2011,05,26,14,50,12.80
2011,05,26,14,51,12.70
2011,05,26,14,52,12.60
2011,05,26,14,53,12.60
2011,05,26,14,54,12.70
2011,05,26,14,55,12.70
2011,05,26,14,56,12.80
2011,05,26,14,57,12.80
2011,05,26,14,58,12.80
2011,05,26,14,59,12.80
2011,05,26,15,00,12.80
2011,05,26,15,01,12.80
2011,05,26,15,02,12.80
2011,05,26,15,03,12.80
2011,05,26,15,04,12.90
2011,05,26,15,05,12.90
2011,05,26,15,06,12.90
2011,05,26,15,07,12.90
2011,05,26,15,08,12.80
2011,05,26,15,09,12.80
2011,05,26,15,10,12.80
2011,05,26,15,11,12.80
2011,05,26,15,12,12.80
2011,05,26,15,13,12.70
2011,05,26,15,14,12.70
2011,05,26,15,15,12.60
2011,05,26,15,16,12.60
2011,05,26,15,17,12.60
2011,05,26,15,18,12.60
2011,05,26,15,19,12.50
2011,05,26,15,20,12.60
2011,05,26,15,21,12.60
2011,05,26,15,22,12.60
2011,05,26,15,23,12.70
2011,05,26,15,24,12.80
2011,05,26,15,25,12.80
2011,05,26,15,26,12.90
2011,05,26,15,27,12.90
2011,05,26,15,28,12.90
2011,05,26,15,29,12.90
2011,05,26,15,30,12.90
2011,05,26,15,31,12.90
2011,05,26,15,32,12.90
2011,05,26,15,33,12.90
2011,05,26,15,34,12.90
2011,05,26,15,35,12.80
2011,05,26,15,36,12.80
2011,05,26,15,37,12.80
2011,05,26,15,38,12.80
2011,05,26,15,39,12.80
2011,05,26,15,40,12.80
2011,05,26,15,41,12.70
2011,05,26,15,42,12.70
2011,05,26,15,43,12.70
2011,05,26,15,44,12.70
2011,05,26,15,45,12.80
2011,05,26,15,46,12.80
2011,05,26,15,47,12.90
2011,05,26,15,48,12.90
2011,05,26,15,49,12.90
2011,05,26,15,50,13.00
2011,05,26,15,51,13.00
2011,05,26,15,52,13.10
2011,05,26,15,53,13.20
2011,05,26,15,54,13.30
2011,05,26,15,55,13.40
2011,05,26,15,56,13.50
2011,05,26,15,57,13.40
2011,05,26,15,58,13.30
2011,05,26,15,59,13.30
2011,05,26,16,00,13.30
2011,05,26,16,01,13.30
2011,05,26,16,02,13.40
2011,05,26,16,03,13.40
2011,05,26,16,04,13.40
2011,05,26,16,05,13.40
2011,05,26,16,06,13.40
2011,05,26,16,07,13.50
2011,05,26,16,08,13.50
2011,05,26,16,09,13.60
2011,05,26,16,10,13.60
2011,05,26,16,11,13.60
2011,05,26,16,12,13.60
2011,05,26,16,13,13.70
2011,05,26,16,14,13.70
2011,05,26,16,15,13.70
2011,05,26,16,16,13.70
2011,05,26,16,17,13.60
2011,05,26,16,18,13.50
2011,05,26,16,19,13.40
2011,05,26,16,20,13.30
2011,05,26,16,21,13.20
2011,05,26,16,22,13.20
2011,05,26,16,23,13.10
2011,05,26,16,24,13.10
2011,05,26,16,25,13.00
2011,05,26,16,26,12.90
2011,05,26,16,27,12.90
2011,05,26,16,28,12.90
2011,05,26,16,29,12.80
2011,05,26,16,30,12.80
2011,05,26,16,31,12.70
2011,05,26,16,32,12.70
2011,05,26,16,33,12.70
2011,05,26,16,34,12.60
2011,05,26,16,35,12.50
2011,05,26,16,36,12.50
2011,05,26,16,37,12.50
2011,05,26,16,38,12.50
2011,05,26,16,39,12.50
2011,05,26,16,40,12.60
2011,05,26,16,41,12.70
2011,05,26,16,42,12.70
2011,05,26,16,43,12.70
2011,05,26,16,44,12.70
2011,05,26,16,45,12.70
2011,05,26,16,46,12.70
2011,05,26,16,47,12.70
2011,05,26,16,48,12.80
2011,05,26,16,49,12.80
2011,05,26,16,50,12.80
2011,05,26,16,51,12.80
2011,05,26,16,52,12.80
2011,05,26,16,53,12.80
2011,05,26,16,54,12.80
2011,05,26,16,55,12.80
2011,05,26,16,56,12.90
2011,05,26,16,57,12.80
2011,05,26,16,58,12.80
2011,05,26,16,59,12.80
2011,05,26,17,00,12.80
2011,05,26,17,01,12.80
2011,05,26,17,02,12.70
2011,05,26,17,03,12.70
2011,05,26,17,04,12.70
2011,05,26,17,05,12.70
2011,05,26,17,06,12.70
2011,05,26,17,07,12.70
2011,05,26,17,08,12.70
2011,05,26,17,09,12.60
2011,05,26,17,10,12.60
2011,05,26,17,11,12.60
2011,05,26,17,12,12.50
2011,05,26,17,13,12.50
2011,05,26,17,14,12.40
2011,05,26,17,15,12.40
2011,05,26,17,16,12.30
2011,05,26,17,17,12.30
2011,05,26,17,18,12.20
2011,05,26,17,19,12.20
2011,05,26,17,20,12.10
2011,05,26,17,21,12.10
2011,05,26,17,22,12.10
2011,05,26,17,23,12.00
2011,05,26,17,24,12.00
2011,05,26,17,25,12.00
2011,05,26,17,26,11.90
2011,05,26,17,27,11.90
2011,05,26,17,28,11.90
2011,05,26,17,29,11.90
2011,05,26,17,30,11.80
2011,05,26,17,31,11.80
2011,05,26,17,32,11.70
2011,05,26,17,33,11.70
2011,05,26,17,34,11.70
2011,05,26,17,35,11.60
2011,05,26,17,36,11.60
2011,05,26,17,37,11.60
2011,05,26,17,38,11.60
2011,05,26,17,39,11.60
2011,05,26,17,40,11.50
2011,05,26,17,41,11.50
2011,05,26,17,42,11.50
2011,05,26,17,43,11.50